Weather History for Little Rock AFB, AR

Change the Weather History Date:

Tuesday, December 10, 2013

  Actual Average Record
Temperature  
Mean Temperature 30 °F -  
Max Temperature 40 °F 53 °F 73 °F (1970)
Min Temperature 21 °F 33 °F 15 °F (1977)
Degree Days  
Heating Degree Days 34    
Moisture  
Dew Point 22 °F    
Average Humidity 73    
Maximum Humidity 93    
Minimum Humidity 52    
Precipitation  
Precipitation 0.00 in - - ()
Sea Level Pressure  
Sea Level Pressure 30.40 in    
Wind  
Wind Speed 4 mph (NW)    
Max Wind Speed 8 mph    
Max Gust Speed -    
Visibility 10 miles    
Events      
Averages and records for this station are not official NWS values.
T = Trace of Precipitation, MM = Missing Value Source: NWS Daily Summary

Daily Weather History Graph

Daily Weather History Graph

Search for Another Location

Airport:

Trip Planner

Search our weather history database for the weather conditions in past years. The results will help you decide how hot, cold, wet, or windy it might be!

Date:

Astronomy

Dec. 10, 2013 Rise Set
Actual Time 7:05 AM CST 4:57 PM CST
Civil Twilight 6:37 AM CST 5:25 PM CST
Nautical Twilight 6:06 AM CST 5:56 PM CST
Astronomical Twilight 5:35 AM CST 6:27 PM CST
Moon 12:47 PM CST (12/10) 12:37 AM CST (12/10)
Length of Visible Light 10h 47m
Length of Day
9h 51m
Waxing Gibbous, 62% of the Moon is Illuminated
Dec 10
Waxing Gibbous
Dec 17
Full
Dec 25
Last Quarter
Jan 1
New
Jan 7
First Quarter

Hourly Weather History & Observations

Time (CST) Temp. Windchill Dew Point Humidity Pressure Visibility Wind Dir Wind Speed Gust Speed Precip Events Conditions
12:43 AM 32.0 °F 26.4 °F 23.0 °F 69% 30.30 in 10.0 mi NW 5.8 mph - N/A   Overcast
12:58 AM 30.7 °F 24.9 °F 23.4 °F 74% 30.33 in 10.0 mi WNW 5.8 mph - N/A   Overcast
1:13 AM 32.0 °F 25.6 °F 23.0 °F 69% 30.31 in 10.0 mi NW 6.9 mph - N/A   Overcast
1:58 AM 30.4 °F 25.6 °F 21.6 °F 70% 30.33 in 10.0 mi NW 4.6 mph - N/A   Overcast
2:58 AM 30.0 °F 22.4 °F 20.7 °F 68% 30.37 in 10.0 mi WNW 8.1 mph - N/A   Overcast
3:18 AM 28.4 °F 23.3 °F 19.4 °F 69% 30.35 in 10.0 mi NW 4.6 mph - N/A   Scattered Clouds
3:28 AM 28.4 °F 22.2 °F 19.4 °F 69% 30.36 in 10.0 mi NW 5.8 mph - N/A   Mostly Cloudy
3:33 AM 28.4 °F 23.3 °F 19.4 °F 69% 30.36 in 10.0 mi NW 4.6 mph - N/A   Scattered Clouds
3:58 AM 28.4 °F 23.3 °F 20.7 °F 73% 30.38 in 10.0 mi NNW 4.6 mph - N/A   Scattered Clouds
4:28 AM 28.4 °F 24.6 °F 21.2 °F 74% 30.37 in 10.0 mi NNW 3.5 mph - N/A   Mostly Cloudy
4:38 AM 26.6 °F - 19.4 °F 74% 30.37 in 10.0 mi NW 2.3 mph - N/A   Scattered Clouds
4:58 AM 26.6 °F - 20.1 °F 77% 30.40 in 10.0 mi WNW 2.3 mph - N/A   Partly Cloudy
5:58 AM 23.5 °F - 19.9 °F 86% 30.42 in 10.0 mi Calm Calm - N/A   Clear
6:58 AM 21.4 °F - 19.4 °F 92% 30.40 in 10.0 mi Calm Calm - N/A   Clear
7:58 AM 23.7 °F - 21.6 °F 91% 30.45 in 10.0 mi NNW 1.2 mph - N/A   Clear
8:58 AM 28.8 °F 23.7 °F 19.6 °F 69% 30.48 in 10.0 mi NW 4.6 mph - N/A   Clear
9:58 AM 30.2 °F 24.3 °F 22.5 °F 73% 30.50 in 10.0 mi Variable 5.8 mph - N/A   Clear
10:58 AM 32.2 °F 27.7 °F 23.4 °F 70% 30.49 in 10.0 mi Variable 4.6 mph - N/A   Clear
11:58 AM 34.7 °F 29.6 °F 24.3 °F 66% 30.47 in 10.0 mi Variable 5.8 mph - N/A   Clear
12:58 PM 37.8 °F 34.2 °F 24.6 °F 59% 30.44 in 10.0 mi NW 4.6 mph - N/A   Clear
1:58 PM 39.2 °F 35.0 °F 24.3 °F 55% 30.41 in 10.0 mi West 5.8 mph - N/A   Clear
2:58 PM 40.5 °F - 24.4 °F 53% 30.40 in 10.0 mi Variable 1.2 mph - N/A   Clear
3:58 PM 40.3 °F - 23.9 °F 52% 30.39 in 10.0 mi Calm Calm - N/A   Clear
4:58 PM 36.3 °F - 27.5 °F 70% 30.37 in 10.0 mi Calm Calm - N/A   Clear
5:58 PM 29.7 °F - 25.5 °F 85% 30.37 in 10.0 mi South 2.3 mph - N/A   Clear
7:58 PM 28.8 °F - 25.3 °F 87% 30.41 in 10.0 mi SW 1.2 mph - N/A   Clear
10:58 PM 23.5 °F - 21.7 °F 93% 30.43 in 10.0 mi Calm Calm - N/A   Clear
11:58 PM 22.6 °F - 20.7 °F 92% 30.42 in 10.0 mi ENE 1.2 mph - N/A   Clear